| time (UTC) | temp F | wind direction | speed MPH | gust MPH | rain 1hr in | rain 24hr in | rain mn in | humidity % | barometer mb |
| 20260507083505 | 52 | 71 | 3.0 | 5.0 | 0.00 | 0.00 | 0.00 | 70 | 1021.5 |
| 20260507082005 | 52 | 68 | 3.0 | 6.0 | 0.00 | 0.00 | 0.00 | 69 | 1021.5 |
| 20260507081505 | 52 | 43 | 3.0 | 6.0 | 0.00 | 0.00 | 0.00 | 70 | 1021.6 |
| 20260507081005 | 52 | 38 | 3.0 | 6.0 | 0.00 | 0.00 | 0.00 | 70 | 1021.5 |
| 20260507080505 | 52 | 41 | 2.0 | 5.0 | 0.00 | 0.00 | 0.00 | 70 | 1021.6 |
| 20260507080005 | 52 | 59 | 2.0 | 3.0 | 0.00 | 0.00 | 0.00 | 70 | 1021.5 |
| 20260507075505 | 52 | 54 | 3.0 | 5.0 | 0.00 | 0.00 | 0.00 | 70 | 1021.5 |
| 20260507075005 | 53 | 67 | 3.0 | 6.0 | 0.00 | 0.00 | 0.00 | 69 | 1021.4 |
| 20260507074505 | 53 | 72 | 3.0 | 6.0 | 0.00 | 0.00 | 0.00 | 69 | 1021.2 |
| 20260507074005 | 53 | 77 | 3.0 | 6.0 | 0.00 | 0.00 | 0.00 | 68 | 1021.2 |
| 20260507073504 | 53 | 64 | 3.0 | 6.0 | 0.00 | 0.00 | 0.00 | 67 | 1021.1 |
| 20260507073005 | 53 | 62 | 2.0 | 3.0 | 0.00 | 0.00 | 0.00 | 66 | 1021.1 |
| 20260507072505 | 53 | 58 | 3.0 | 7.0 | 0.00 | 0.00 | 0.00 | 66 | 1021.0 |
| 20260507072005 | 53 | 82 | 3.0 | 7.0 | 0.00 | 0.00 | 0.00 | 66 | 1021.0 |
| 20260507071505 | 54 | 67 | 3.0 | 7.0 | 0.00 | 0.00 | 0.00 | 65 | 1021.1 |
| 20260507070505 | 54 | 77 | 2.0 | 3.0 | 0.00 | 0.00 | 0.00 | 65 | 1021.1 |
| 20260507070009 | 55 | 77 | 3.0 | 5.0 | 0.00 | 0.00 | 0.00 | 65 | 1021.0 |
| 20260507065505 | 55 | 77 | 3.0 | 5.0 | 0.00 | 0.00 | 0.00 | 65 | 1020.9 |
| 20260507065004 | 55 | 81 | 3.0 | 5.0 | 0.00 | 0.00 | 0.00 | 65 | 1020.9 |
| 20260507064505 | 55 | 75 | 3.0 | 6.0 | 0.00 | 0.00 | 0.00 | 65 | 1020.8 |
| 20260507064005 | 55 | 94 | 3.0 | 7.0 | 0.00 | 0.00 | 0.00 | 64 | 1020.6 |
| 20260507063505 | 56 | 89 | 3.0 | 7.0 | 0.00 | 0.00 | 0.00 | 63 | 1020.7 |
| 20260507063005 | 56 | 98 | 3.0 | 7.0 | 0.00 | 0.00 | 0.00 | 62 | 1020.6 |
| 20260507062505 | 56 | 94 | 3.0 | 7.0 | 0.00 | 0.00 | 0.00 | 61 | 1020.7 |
| 20260507062005 | 56 | 88 | 5.0 | 7.0 | 0.00 | 0.00 | 0.00 | 61 | 1020.4 |
| 20260507061505 | 57 | 75 | 5.0 | 7.0 | 0.00 | 0.00 | 0.00 | 61 | 1020.4 |
| 20260507061004 | 57 | 77 | 5.0 | 12.0 | 0.00 | 0.00 | 0.00 | 61 | 1020.3 |
| 20260507055505 | 58 | 85 | 7.0 | 12.0 | 0.00 | 0.00 | 0.00 | 61 | 1019.9 |
| 20260507054005 | 58 | 102 | 7.0 | 15.0 | 0.00 | 0.00 | 0.00 | 60 | 1019.3 |
| 20260507053505 | 58 | 96 | 7.0 | 15.0 | 0.00 | 0.00 | 0.00 | 59 | 1019.2 |
| 20260507053005 | 58 | 101 | 8.0 | 13.0 | 0.00 | 0.00 | 0.00 | 59 | 1019.2 |
| 20260507052505 | 58 | 99 | 9.0 | 13.0 | 0.00 | 0.00 | 0.00 | 58 | 1019.2 |
| 20260507052005 | 59 | 104 | 9.0 | 13.0 | 0.00 | 0.00 | 0.00 | 58 | 1019.1 |
| 20260507051505 | 59 | 104 | 8.0 | 14.0 | 0.00 | 0.00 | 0.00 | 57 | 1018.9 |
| 20260507051005 | 59 | 103 | 7.0 | 14.0 | 0.00 | 0.00 | 0.00 | 56 | 1019.0 |
| 20260507050504 | 59 | 98 | 6.0 | 12.0 | 0.00 | 0.00 | 0.00 | 55 | 1018.7 |
| 20260507050006 | 59 | 104 | 6.0 | 10.0 | 0.00 | 0.00 | 0.00 | 54 | 1018.6 |
| 20260507045504 | 60 | 103 | 6.0 | 10.0 | 0.00 | 0.00 | 0.00 | 54 | 1018.7 |
| 20260507045005 | 60 | 103 | 8.0 | 16.0 | 0.00 | 0.00 | 0.00 | 54 | 1018.7 |
| 20260507044505 | 60 | 87 | 9.0 | 20.0 | 0.00 | 0.00 | 0.00 | 54 | 1018.4 |
| 20260507044005 | 60 | 107 | 9.0 | 20.0 | 0.00 | 0.00 | 0.00 | 53 | 1018.3 |
| 20260507043505 | 60 | 109 | 10.0 | 15.0 | 0.00 | 0.00 | 0.00 | 52 | 1018.3 |
| 20260507043005 | 60 | 104 | 10.0 | 14.0 | 0.00 | 0.00 | 0.00 | 52 | 1018.3 |
| 20260507042504 | 60 | 96 | 8.0 | 14.0 | 0.00 | 0.00 | 0.00 | 52 | 1018.1 |
| 20260507042004 | 60 | 93 | 8.0 | 15.0 | 0.00 | 0.00 | 0.00 | 51 | 1018.0 |
| 20260507041005 | 61 | 104 | 8.0 | 13.0 | 0.00 | 0.00 | 0.00 | 51 | 1017.8 |
| 20260507040504 | 61 | 100 | 9.0 | 15.0 | 0.00 | 0.00 | 0.00 | 51 | 1017.8 |
| 20260507040005 | 61 | 103 | 10.0 | 15.0 | 0.00 | 0.00 | 0.00 | 50 | 1017.9 |
| 20260507035505 | 61 | 90 | 9.0 | 15.0 | 0.00 | 0.00 | 0.00 | 50 | 1017.8 |
| 20260507034505 | 62 | 94 | 9.0 | 15.0 | 0.00 | 0.00 | 0.00 | 50 | 1017.5 |
| 20260507034004 | 62 | 93 | 9.0 | 17.0 | 0.00 | 0.00 | 0.00 | 49 | 1017.4 |
| 20260507033504 | 62 | 96 | 9.0 | 17.0 | 0.00 | 0.00 | 0.00 | 49 | 1017.4 |
| 20260507033004 | 62 | 101 | 10.0 | 16.0 | 0.00 | 0.00 | 0.00 | 49 | 1017.2 |
| 20260507032505 | 63 | 101 | 10.0 | 20.0 | 0.00 | 0.00 | 0.00 | 48 | 1017.2 |
| 20260507032005 | 63 | 103 | 9.0 | 20.0 | 0.00 | 0.00 | 0.00 | 48 | 1017.2 |
| 20260507031505 | 63 | 98 | 9.0 | 20.0 | 0.00 | 0.00 | 0.00 | 48 | 1017.1 |
| 20260507030505 | 63 | 103 | 10.0 | 16.0 | 0.00 | 0.00 | 0.00 | 47 | 1017.0 |
| 20260507030004 | 64 | 101 | 9.0 | 15.0 | 0.00 | 0.00 | 0.00 | 46 | 1017.1 |
| 20260507025504 | 64 | 98 | 9.0 | 15.0 | 0.00 | 0.00 | 0.00 | 46 | 1017.0 |
| 20260507025004 | 64 | 100 | 9.0 | 15.0 | 0.00 | 0.00 | 0.00 | 46 | 1017.0 |
| 20260507024504 | 64 | 99 | 9.0 | 15.0 | 0.00 | 0.00 | 0.00 | 46 | 1016.8 |
| 20260507023504 | 65 | 98 | 10.0 | 15.0 | 0.00 | 0.00 | 0.00 | 45 | 1016.7 |
| 20260507023005 | 65 | 95 | 10.0 | 15.0 | 0.00 | 0.00 | 0.00 | 44 | 1016.6 |
| 20260507022505 | 65 | 99 | 12.0 | 18.0 | 0.00 | 0.00 | 0.00 | 44 | 1016.4 |
| 20260507022004 | 65 | 97 | 12.0 | 18.0 | 0.00 | 0.00 | 0.00 | 44 | 1016.3 |
| 20260507021004 | 66 | 104 | 12.0 | 18.0 | 0.00 | 0.00 | 0.00 | 43 | 1016.0 |
| 20260507020504 | 66 | 101 | 12.0 | 17.0 | 0.00 | 0.00 | 0.00 | 43 | 1016.1 |
| 20260507020004 | 67 | 91 | 12.0 | 16.0 | 0.00 | 0.00 | 0.00 | 43 | 1015.9 |
| 20260507015504 | 67 | 99 | 12.0 | 22.0 | 0.00 | 0.00 | 0.00 | 42 | 1015.8 |
| 20260507015005 | 67 | 101 | 12.0 | 22.0 | 0.00 | 0.00 | 0.00 | 41 | 1015.6 |
| 20260507014504 | 67 | 101 | 9.0 | 14.0 | 0.00 | 0.00 | 0.00 | 41 | 1015.5 |
| 20260507014004 | 68 | 100 | 8.0 | 14.0 | 0.00 | 0.00 | 0.00 | 41 | 1015.3 |
| 20260507013005 | 68 | 103 | 12.0 | 16.0 | 0.00 | 0.00 | 0.00 | 40 | 1015.1 |
| 20260507012504 | 69 | 96 | 12.0 | 16.0 | 0.00 | 0.00 | 0.00 | 39 | 1015.0 |
| 20260507012004 | 69 | 104 | 12.0 | 16.0 | 0.00 | 0.00 | 0.00 | 39 | 1014.9 |
| 20260507011505 | 69 | 99 | 12.0 | 18.0 | 0.00 | 0.00 | 0.00 | 38 | 1014.8 |
| 20260507010504 | 70 | 98 | 12.0 | 20.0 | 0.00 | 0.00 | 0.00 | 37 | 1014.6 |
| 20260507010005 | 71 | 107 | 12.0 | 20.0 | 0.00 | 0.00 | 0.00 | 37 | 1014.5 |
| 20260507005504 | 71 | 89 | 12.0 | 20.0 | 0.00 | 0.00 | 0.00 | 36 | 1014.5 |
| 20260507005004 | 71 | 99 | 12.0 | 18.0 | 0.00 | 0.00 | 0.00 | 36 | 1014.3 |
| 20260507004504 | 72 | 89 | 12.0 | 18.0 | 0.00 | 0.00 | 0.00 | 35 | 1014.2 |
| 20260507003505 | 72 | 100 | 10.0 | 17.0 | 0.00 | 0.00 | 0.00 | 35 | 1014.2 |
| 20260507003005 | 73 | 103 | 11.0 | 17.0 | 0.00 | 0.00 | 0.00 | 34 | 1014.1 |
| 20260507002504 | 73 | 110 | 12.0 | 17.0 | 0.00 | 0.00 | 0.00 | 34 | 1014.1 |
| 20260507002005 | 73 | 109 | 10.0 | 17.0 | 0.00 | 0.00 | 0.00 | 34 | 1014.0 |
| 20260507001504 | 73 | 95 | 10.0 | 17.0 | 0.00 | 0.00 | 0.00 | 34 | 1013.9 |
| 20260507001004 | 74 | 80 | 10.0 | 16.0 | 0.00 | 0.00 | 0.00 | 33 | 1014.0 |
| 20260507000005 | 74 | 110 | 10.0 | 18.0 | 0.00 | 0.00 | 0.00 | 33 | 1014.0 |
| 20260506235504 | 74 | 95 | 12.0 | 20.0 | 0.00 | 0.00 | 0.00 | 33 | 1014.0 |
| 20260506235004 | 74 | 117 | 12.0 | 20.0 | 0.00 | 0.00 | 0.00 | 33 | 1014.0 |
| 20260506234004 | 75 | 108 | 10.0 | 16.0 | 0.00 | 0.00 | 0.00 | 33 | 1014.0 |
| 20260506233004 | 75 | 131 | 10.0 | 17.0 | 0.00 | 0.00 | 0.00 | 33 | 1014.0 |
| 20260506232504 | 75 | 93 | 9.0 | 17.0 | 0.00 | 0.00 | 0.00 | 33 | 1013.9 |
| 20260506232004 | 75 | 123 | 9.0 | 17.0 | 0.00 | 0.00 | 0.00 | 33 | 1014.0 |
| 20260506231505 | 75 | 106 | 9.0 | 15.0 | 0.00 | 0.00 | 0.00 | 33 | 1014.0 |
| 20260506230504 | 75 | 103 | 5.0 | 15.0 | 0.00 | 0.00 | 0.00 | 33 | 1014.0 |
| 20260506230004 | 75 | 121 | 7.0 | 15.0 | 0.00 | 0.00 | 0.00 | 32 | 1013.9 |
| 20260506225504 | 76 | 116 | 8.0 | 16.0 | 0.00 | 0.00 | 0.00 | 33 | 1014.0 |
| 20260506225004 | 76 | 113 | 7.0 | 16.0 | 0.00 | 0.00 | 0.00 | 33 | 1014.0 |
| 20260506224504 | 76 | 123 | 8.0 | 13.0 | 0.00 | 0.00 | 0.00 | 33 | 1013.9 |
| 20260506224004 | 75 | 97 | 5.0 | 13.0 | 0.00 | 0.00 | 0.00 | 33 | 1013.9 |
| 20260506223005 | 75 | 131 | 7.0 | 14.0 | 0.00 | 0.00 | 0.00 | 33 | 1013.9 |
| 20260506222007 | 75 | 131 | 7.0 | 15.0 | 0.00 | 0.00 | 0.00 | 34 | 1013.9 |
| 20260506221504 | 75 | 93 | 8.0 | 15.0 | 0.00 | 0.00 | 0.00 | 34 | 1013.8 |
| 20260506221004 | 75 | 144 | 7.0 | 13.0 | 0.00 | 0.00 | 0.00 | 33 | 1013.9 |
| 20260506220505 | 75 | 109 | 7.0 | 15.0 | 0.00 | 0.00 | 0.00 | 34 | 1014.1 |
| 20260506220005 | 75 | 166 | 9.0 | 15.0 | 0.00 | 0.00 | 0.00 | 34 | 1014.2 |
| 20260506215505 | 75 | 105 | 7.0 | 15.0 | 0.00 | 0.00 | 0.00 | 34 | 1014.2 |
| 20260506215005 | 75 | 112 | 7.0 | 13.0 | 0.00 | 0.00 | 0.00 | 35 | 1014.2 |
| 20260506214504 | 75 | 166 | 8.0 | 13.0 | 0.00 | 0.00 | 0.00 | 34 | 1014.2 |
| 20260506214004 | 75 | 124 | 7.0 | 13.0 | 0.00 | 0.00 | 0.00 | 34 | 1014.3 |
| 20260506213504 | 75 | 150 | 6.0 | 12.0 | 0.00 | 0.00 | 0.00 | 35 | 1014.3 |
| 20260506213005 | 75 | 75 | 7.0 | 13.0 | 0.00 | 0.00 | 0.00 | 34 | 1014.4 |
| 20260506212504 | 75 | 123 | 8.0 | 13.0 | 0.00 | 0.00 | 0.00 | 35 | 1014.5 |
| 20260506211505 | 75 | 130 | 5.0 | 12.0 | 0.00 | 0.00 | 0.00 | 35 | 1014.6 |
| 20260506211004 | 75 | 122 | 5.0 | 12.0 | 0.00 | 0.00 | 0.00 | 34 | 1014.7 |
| 20260506210504 | 75 | 56 | 6.0 | 13.0 | 0.00 | 0.00 | 0.00 | 35 | 1014.7 |
| 20260506210004 | 74 | 91 | 6.0 | 15.0 | 0.00 | 0.00 | 0.00 | 35 | 1014.9 |
| 20260506205005 | 74 | 83 | 7.0 | 13.0 | 0.00 | 0.00 | 0.00 | 36 | 1014.9 |
| 20260506204504 | 74 | 90 | 5.0 | 12.0 | 0.00 | 0.00 | 0.00 | 37 | 1014.9 |
| 20260506204004 | 73 | 120 | 5.0 | 12.0 | 0.00 | 0.00 | 0.00 | 37 | 1014.8 |
| 20260506203004 | 73 | 52 | 5.0 | 14.0 | 0.00 | 0.00 | 0.00 | 37 | 1015.0 |
| 20260506202504 | 73 | 55 | 7.0 | 13.0 | 0.00 | 0.00 | 0.00 | 37 | 1014.9 |
| 20260506201505 | 72 | 81 | 6.0 | 15.0 | 0.00 | 0.00 | 0.00 | 37 | 1015.0 |
| 20260506201004 | 72 | 32 | 6.0 | 14.0 | 0.00 | 0.00 | 0.00 | 38 | 1015.2 |
| 20260506200505 | 72 | 28 | 7.0 | 17.0 | 0.00 | 0.00 | 0.00 | 37 | 1015.1 |
| 20260506195504 | 72 | 99 | 7.0 | 14.0 | 0.00 | 0.00 | 0.00 | 38 | 1015.2 |
| 20260506195004 | 72 | 42 | 5.0 | 18.0 | 0.00 | 0.00 | 0.00 | 38 | 1015.2 |
| 20260506194504 | 71 | 73 | 5.0 | 18.0 | 0.00 | 0.00 | 0.00 | 40 | 1015.3 |
| 20260506193504 | 71 | 90 | 5.0 | 15.0 | 0.00 | 0.00 | 0.00 | 40 | 1015.3 |
| 20260506193005 | 70 | 108 | 6.0 | 12.0 | 0.00 | 0.00 | 0.00 | 41 | 1015.3 |
| 20260506192504 | 69 | 85 | 7.0 | 12.0 | 0.00 | 0.00 | 0.00 | 41 | 1015.4 |
| 20260506192004 | 69 | 83 | 6.0 | 13.0 | 0.00 | 0.00 | 0.00 | 41 | 1015.4 |
| 20260506191005 | 68 | 116 | 8.0 | 15.0 | 0.00 | 0.00 | 0.00 | 43 | 1015.3 |
| 20260506190505 | 68 | 156 | 6.0 | 15.0 | 0.00 | 0.00 | 0.00 | 42 | 1015.4 |
| 20260506190005 | 68 | 69 | 5.0 | 13.0 | 0.00 | 0.00 | 0.00 | 44 | 1015.4 |
| 20260506185504 | 67 | 141 | 6.0 | 12.0 | 0.00 | 0.00 | 0.00 | 44 | 1015.4 |
| 20260506185005 | 67 | 148 | 5.0 | 14.0 | 0.00 | 0.00 | 0.00 | 44 | 1015.4 |
| 20260506184004 | 67 | 112 | 3.0 | 10.0 | 0.00 | 0.00 | 0.00 | 44 | 1015.5 |
| 20260506183504 | 67 | 72 | 3.0 | 13.0 | 0.00 | 0.00 | 0.00 | 45 | 1015.5 |
| 20260506183005 | 66 | 354 | 5.0 | 13.0 | 0.00 | 0.00 | 0.00 | 45 | 1015.8 |
| 20260506182504 | 66 | 78 | 5.0 | 10.0 | 0.00 | 0.00 | 0.00 | 45 | 1015.9 |
| 20260506182005 | 65 | 66 | 5.0 | 10.0 | 0.00 | 0.00 | 0.00 | 47 | 1015.9 |
| 20260506181504 | 65 | 97 | 5.0 | 16.0 | 0.00 | 0.00 | 0.00 | 46 | 1015.9 |
| 20260506181004 | 65 | 15 | 5.0 | 16.0 | 0.00 | 0.00 | 0.00 | 47 | 1016.0 |
| 20260506180005 | 64 | 87 | 6.0 | 14.0 | 0.00 | 0.00 | 0.00 | 48 | 1016.2 |
| 20260506175504 | 64 | 82 | 6.0 | 14.0 | 0.00 | 0.00 | 0.00 | 48 | 1016.2 |
| 20260506175004 | 64 | 36 | 6.0 | 12.0 | 0.00 | 0.00 | 0.00 | 48 | 1016.3 |
| 20260506174005 | 63 | 95 | 7.0 | 13.0 | 0.00 | 0.00 | 0.00 | 49 | 1016.4 |
| 20260506173504 | 63 | 63 | 6.0 | 13.0 | 0.00 | 0.00 | 0.00 | 49 | 1016.3 |
| 20260506173005 | 63 | 81 | 6.0 | 12.0 | 0.00 | 0.00 | 0.00 | 49 | 1016.4 |
| 20260506172504 | 62 | 105 | 5.0 | 12.0 | 0.00 | 0.00 | 0.00 | 50 | 1016.5 |
| 20260506172004 | 62 | 112 | 6.0 | 13.0 | 0.00 | 0.00 | 0.00 | 51 | 1016.5 |
| 20260506171504 | 62 | 94 | 7.0 | 13.0 | 0.00 | 0.00 | 0.00 | 51 | 1016.7 |
| 20260506170504 | 61 | 95 | 7.0 | 13.0 | 0.00 | 0.00 | 0.00 | 53 | 1016.6 |
| 20260506170004 | 60 | 124 | 5.0 | 12.0 | 0.00 | 0.00 | 0.00 | 53 | 1016.6 |
| 20260506165503 | 60 | 72 | 6.0 | 17.0 | 0.00 | 0.00 | 0.00 | 53 | 1016.6 |
| 20260506165005 | 60 | 81 | 8.0 | 17.0 | 0.00 | 0.00 | 0.00 | 54 | 1016.7 |
| 20260506164504 | 59 | 91 | 7.0 | 17.0 | 0.00 | 0.00 | 0.00 | 56 | 1016.9 |
| 20260506163504 | 58 | 104 | 9.0 | 16.0 | 0.00 | 0.00 | 0.00 | 56 | 1016.9 |
| 20260506163004 | 58 | 49 | 7.0 | 17.0 | 0.00 | 0.00 | 0.00 | 57 | 1017.0 |
| 20260506162504 | 57 | 66 | 7.0 | 17.0 | 0.00 | 0.00 | 0.00 | 60 | 1017.1 |
| 20260506162004 | 56 | 52 | 9.0 | 16.0 | 0.00 | 0.00 | 0.00 | 59 | 1016.9 |
| 20260506161504 | 56 | 95 | 9.0 | 17.0 | 0.00 | 0.00 | 0.00 | 61 | 1016.9 |
| 20260506161004 | 55 | 80 | 7.0 | 17.0 | 0.00 | 0.00 | 0.00 | 61 | 1016.9 |
| 20260506160504 | 55 | 69 | 8.0 | 17.0 | 0.00 | 0.00 | 0.00 | 62 | 1017.0 |
| 20260506160004 | 55 | 87 | 9.0 | 17.0 | 0.00 | 0.00 | 0.00 | 63 | 1017.1 |
| 20260506155504 | 54 | 63 | 9.0 | 17.0 | 0.00 | 0.00 | 0.00 | 64 | 1017.0 |
| 20260506155004 | 54 | 71 | 10.0 | 18.0 | 0.00 | 0.00 | 0.00 | 65 | 1017.1 |
| 20260506154504 | 54 | 92 | 10.0 | 18.0 | 0.00 | 0.00 | 0.00 | 66 | 1016.9 |
| 20260506153504 | 53 | 91 | 9.0 | 15.0 | 0.00 | 0.00 | 0.00 | 68 | 1017.0 |
| 20260506152504 | 52 | 82 | 10.0 | 18.0 | 0.00 | 0.00 | 0.00 | 69 | 1016.8 |
| 20260506152004 | 51 | 81 | 10.0 | 18.0 | 0.00 | 0.00 | 0.00 | 70 | 1017.0 |
| 20260506151504 | 51 | 98 | 10.0 | 17.0 | 0.00 | 0.00 | 0.00 | 71 | 1017.1 |
| 20260506151004 | 51 | 90 | 9.0 | 16.0 | 0.00 | 0.00 | 0.00 | 71 | 1017.1 |
| 20260506150504 | 50 | 85 | 8.0 | 14.0 | 0.00 | 0.00 | 0.00 | 72 | 1016.9 |
| 20260506145504 | 50 | 89 | 7.0 | 12.0 | 0.00 | 0.00 | 0.00 | 74 | 1017.0 |
| 20260506145004 | 50 | 71 | 8.0 | 16.0 | 0.00 | 0.00 | 0.00 | 74 | 1016.8 |
| 20260506144504 | 50 | 82 | 10.0 | 16.0 | 0.00 | 0.00 | 0.00 | 74 | 1016.8 |
| 20260506144004 | 50 | 75 | 10.0 | 18.0 | 0.00 | 0.00 | 0.00 | 74 | 1016.9 |
| 20260506143504 | 50 | 76 | 8.0 | 18.0 | 0.00 | 0.00 | 0.00 | 74 | 1016.8 |
| 20260506143004 | 50 | 53 | 9.0 | 16.0 | 0.00 | 0.00 | 0.00 | 74 | 1016.7 |
| 20260506142504 | 50 | 48 | 9.0 | 15.0 | 0.00 | 0.00 | 0.00 | 75 | 1016.8 |
| 20260506142004 | 50 | 77 | 9.0 | 15.0 | 0.00 | 0.00 | 0.00 | 75 | 1016.8 |
| 20260506141504 | 50 | 81 | 9.0 | 15.0 | 0.00 | 0.00 | 0.00 | 75 | 1016.6 |
| 20260506141004 | 49 | 79 | 9.0 | 15.0 | 0.00 | 0.00 | 0.00 | 75 | 1016.5 |
| 20260506140504 | 49 | 71 | 9.0 | 14.0 | 0.00 | 0.00 | 0.00 | 75 | 1016.4 |
| 20260506140004 | 49 | 85 | 10.0 | 17.0 | 0.00 | 0.00 | 0.00 | 75 | 1016.3 |
| 20260506135503 | 49 | 77 | 10.0 | 17.0 | 0.00 | 0.00 | 0.00 | 75 | 1016.3 |
| 20260506134506 | 49 | 75 | 10.0 | 16.0 | 0.00 | 0.00 | 0.00 | 75 | 1016.3 |
| 20260506133505 | 49 | 49 | 7.0 | 15.0 | 0.00 | 0.00 | 0.00 | 75 | 1015.8 |
| 20260506133006 | 49 | 51 | 7.0 | 14.0 | 0.00 | 0.00 | 0.00 | 75 | 1015.7 |
| 20260506132506 | 49 | 59 | 8.0 | 13.0 | 0.00 | 0.00 | 0.00 | 75 | 1015.6 |
| 20260506132007 | 49 | 47 | 8.0 | 13.0 | 0.00 | 0.00 | 0.00 | 75 | 1015.5 |
| 20260506131506 | 49 | 50 | 9.0 | 15.0 | 0.00 | 0.00 | 0.00 | 76 | 1015.4 |
| 20260506131006 | 49 | 44 | 10.0 | 17.0 | 0.00 | 0.00 | 0.00 | 76 | 1015.3 |
| 20260506130506 | 49 | 55 | 8.0 | 17.0 | 0.00 | 0.00 | 0.00 | 76 | 1015.2 |
| 20260506130006 | 48 | 50 | 7.0 | 15.0 | 0.00 | 0.00 | 0.00 | 76 | 1015.2 |
| 20260506125506 | 48 | 60 | 7.0 | 14.0 | 0.00 | 0.00 | 0.00 | 76 | 1015.1 |
| 20260506125005 | 48 | 53 | 10.0 | 15.0 | 0.00 | 0.00 | 0.00 | 76 | 1014.9 |
| 20260506124505 | 48 | 60 | 9.0 | 17.0 | 0.00 | 0.00 | 0.00 | 77 | 1014.7 |
| 20260506124005 | 48 | 56 | 9.0 | 17.0 | 0.00 | 0.00 | 0.00 | 77 | 1014.8 |
| 20260506123006 | 48 | 50 | 9.0 | 16.0 | 0.00 | 0.00 | 0.00 | 77 | 1014.3 |
| 20260506122505 | 48 | 50 | 9.0 | 18.0 | 0.00 | 0.00 | 0.00 | 77 | 1014.2 |
| 20260506121505 | 48 | 61 | 8.0 | 17.0 | 0.00 | 0.00 | 0.00 | 77 | 1014.1 |
| 20260506121006 | 48 | 48 | 8.0 | 16.0 | 0.00 | 0.00 | 0.00 | 77 | 1014.2 |
| 20260506120506 | 48 | 53 | 8.0 | 16.0 | 0.00 | 0.00 | 0.00 | 77 | 1014.1 |
| 20260506120005 | 48 | 52 | 9.0 | 16.0 | 0.00 | 0.00 | 0.00 | 77 | 1014.0 |
| 20260506115505 | 48 | 72 | 9.0 | 16.0 | 0.00 | 0.00 | 0.00 | 77 | 1014.0 |
| 20260506115006 | 48 | 55 | 9.0 | 16.0 | 0.00 | 0.00 | 0.00 | 77 | 1013.8 |
| 20260506114506 | 48 | 62 | 8.0 | 16.0 | 0.00 | 0.00 | 0.00 | 77 | 1013.6 |
| 20260506114006 | 48 | 65 | 6.0 | 12.0 | 0.00 | 0.00 | 0.00 | 78 | 1013.6 |
| 20260506113505 | 48 | 69 | 7.0 | 16.0 | 0.00 | 0.00 | 0.00 | 78 | 1013.5 |
| 20260506113006 | 48 | 74 | 9.0 | 18.0 | 0.00 | 0.00 | 0.00 | 78 | 1013.4 |
| 20260506112506 | 48 | 64 | 9.0 | 18.0 | 0.00 | 0.00 | 0.00 | 77 | 1013.6 |
| 20260506111505 | 49 | 74 | 8.0 | 14.0 | 0.00 | 0.00 | 0.00 | 78 | 1013.5 |
| 20260506111006 | 49 | 72 | 7.0 | 14.0 | 0.00 | 0.00 | 0.00 | 78 | 1013.3 |
| 20260506110505 | 48 | 52 | 8.0 | 16.0 | 0.00 | 0.00 | 0.00 | 77 | 1013.5 |
| 20260506105506 | 48 | 66 | 8.0 | 15.0 | 0.00 | 0.00 | 0.00 | 77 | 1013.3 |
| 20260506105005 | 48 | 77 | 8.0 | 14.0 | 0.00 | 0.00 | 0.00 | 77 | 1013.4 |
| 20260506104506 | 48 | 72 | 8.0 | 13.0 | 0.00 | 0.00 | 0.00 | 77 | 1013.2 |
| 20260506104005 | 48 | 78 | 8.0 | 16.0 | 0.00 | 0.00 | 0.00 | 77 | 1013.3 |
| 20260506103506 | 48 | 82 | 9.0 | 16.0 | 0.00 | 0.00 | 0.00 | 76 | 1013.2 |
| 20260506103006 | 48 | 70 | 9.0 | 16.0 | 0.00 | 0.00 | 0.00 | 76 | 1013.2 |
| 20260506102506 | 48 | 74 | 7.0 | 16.0 | 0.00 | 0.00 | 0.00 | 76 | 1013.2 |
| 20260506102005 | 48 | 76 | 8.0 | 14.0 | 0.00 | 0.00 | 0.00 | 76 | 1013.1 |
| 20260506101505 | 48 | 87 | 10.0 | 16.0 | 0.00 | 0.00 | 0.00 | 75 | 1013.1 |
| 20260506100505 | 48 | 83 | 12.0 | 16.0 | 0.00 | 0.00 | 0.00 | 75 | 1013.0 |
| 20260506100005 | 48 | 80 | 10.0 | 16.0 | 0.00 | 0.00 | 0.00 | 74 | 1013.0 |
| 20260506095506 | 48 | 76 | 8.0 | 15.0 | 0.00 | 0.00 | 0.00 | 74 | 1013.0 |
| 20260506095005 | 49 | 74 | 7.0 | 15.0 | 0.00 | 0.00 | 0.00 | 74 | 1012.8 |
| 20260506094505 | 49 | 84 | 9.0 | 16.0 | 0.00 | 0.00 | 0.00 | 74 | 1012.7 |
| 20260506094005 | 49 | 76 | 12.0 | 16.0 | 0.00 | 0.00 | 0.00 | 74 | 1012.6 |
| 20260506093506 | 49 | 81 | 9.0 | 15.0 | 0.00 | 0.00 | 0.00 | 73 | 1012.6 |
| 20260506093005 | 49 | 77 | 10.0 | 16.0 | 0.00 | 0.00 | 0.00 | 73 | 1012.4 |
| 20260506092506 | 49 | 72 | 12.0 | 20.0 | 0.00 | 0.00 | 0.00 | 72 | 1012.2 |
| 20260506092005 | 49 | 84 | 12.0 | 21.0 | 0.00 | 0.00 | 0.00 | 72 | 1012.0 |
| 20260506091505 | 49 | 94 | 12.0 | 21.0 | 0.00 | 0.00 | 0.00 | 72 | 1012.0 |
| 20260506091005 | 49 | 74 | 11.0 | 20.0 | 0.00 | 0.00 | 0.00 | 71 | 1011.9 |
| 20260506090005 | 50 | 82 | 12.0 | 18.0 | 0.00 | 0.00 | 0.00 | 71 | 1011.7 |
| 20260506085506 | 50 | 82 | 10.0 | 18.0 | 0.00 | 0.00 | 0.00 | 71 | 1011.6 |
| 20260506085005 | 50 | 92 | 9.0 | 16.0 | 0.00 | 0.00 | 0.00 | 71 | 1011.4 |
| 20260506084506 | 50 | 74 | 9.0 | 16.0 | 0.00 | 0.00 | 0.00 | 71 | 1011.2 |
| 20260506084006 | 50 | 90 | 9.0 | 15.0 | 0.00 | 0.00 | 0.00 | 70 | 1011.2 |